Powrót do katalogu

CZ-3C DEB

AktywnyHEO
NORAD 42470·DEBRIS·🇨🇳 China

Wystrzelony Oct 31, 2010 z Xichang Satellite Launch Center

Loading…

Następne Przeloty (najbliższe 24 godziny)

TLE

ŚwieżeSource: Space-Track

Epoka: Sep 14, 2026, 06:23 UTC

1 42470U 10057BK  26257.26627310  .00001211  00000-0  39918-2 0  9996
2 42470  20.9476 221.3638 6679980 119.6610 321.9970  2.93667604124552

Śledź CZ-3C DEB w czasie rzeczywistym z AllMySat

Download on the App Store